Flag for Cayman Islands Weather past 2 weeks in George Town, Cayman Islands

Now
86 °F

Warm.


Feels Like: 97 °F
Forecast: 84 / 87 °F
Wind: 10 mph from Northeast

Location: Cayo Largo Del Sur

Current Time: Sep 2, 2015 at 1:51:37 AM

Latest Report: Sep 2, 2015 at 1:05 AM


Visibility: N/A

Pressure: 30.01 "Hg

Humidity: 75%

Dew point: 77 °F

Location of George TownLocation

Historic Weather in George Town — Graph

°F

George Town temperature yesterday

Maximum temperature yesterday: 90 °F (at 1:51 PM)
Minimum temperature yesterday: 82 °F (at 3:05 AM)
Average temperature yesterday: 86 °F

Past Weeks' High & Low Weather Summary

 TemperatureHumidityPressure
High91 °F (Aug 19, 1:56 PM)89% (Aug 30, 5:56 AM)30.07 "Hg (Aug 30, 5:56 AM)
Low77 °F (Aug 21, 1:05 AM)49% (Aug 31, 10:05 AM)29.86 "Hg (Aug 24, 3:51 PM)
Average85 °F69%29.95 "Hg
* Reported Aug 18 12:05 AM — Sep 2 12:05 AM, George Town, Weather by CustomWeather, © 2015

Note: Actual official high and low records may vary slightly from our data, if they occured in-between our weather recording intervals... More about our weather records

Advertising

George Town weather history for previous 24 hours

 ConditionsComfort  
Time TempWeatherWind HumidityBarometerVisibility
12:05 AM
Wed, Sep 2
86 °FWarm.9 mph75%30.04 "HgN/A
11:05 PM
Tue, Sep 1
86 °FWarm.8 mph70%30.04 "HgN/A
10:05 PM86 °FWarm.6 mph70%30.04 "HgN/A
9:05 PM84 °FWarm.3 mph74%30.04 "HgN/A
8:05 PM86 °FWarm.3 mph70%30.01 "HgN/A
7:05 PM86 °FWarm.6 mph70%29.98 "HgN/A
5:53 PM90 °FPassing clouds.9 mph59%29.95 "Hg6 mi
3:52 PM90 °FPassing clouds.12 mph67%29.95 "HgN/A
2:53 PM90 °FPassing clouds.12 mph63%29.98 "HgN/A
1:51 PM90 °FPassing clouds.9 mph63%29.98 "HgN/A
12:51 PM88 °FPassing clouds.7 mph66%30.01 "HgN/A
11:55 AM86 °FScattered clouds.7 mph70%30.04 "Hg6 mi
10:56 AM88 °FScattered clouds.5 mph66%30.04 "Hg6 mi
10:05 AM88 °FWarm.8 mph62%30.04 "HgN/A
9:05 AM88 °FWarm.7 mph66%30.07 "HgN/A
7:51 AM86 °FPassing clouds.9 mph66%30.04 "HgN/A
6:51 AM84 °FPassing clouds.5 mph74%30.04 "Hg6 mi
5:54 AM82 °FPassing clouds.5 mph79%30.01 "Hg6 mi
5:05 AM82 °FWarm.6 mph79%29.98 "HgN/A
4:05 AM82 °FWarm.5 mph79%29.98 "HgN/A
3:05 AM82 °FWarm.3 mph79%30.01 "HgN/A
2:05 AM84 °FWarm.5 mph74%30.01 "HgN/A
1:05 AM84 °FWarm.8 mph79%30.01 "HgN/A
Weather by CustomWeather, © 2015

See weather overviewHow to use our weather pages